Voltar ao catálogo

COSMOS 970 DEB

AtivoLEO
NORAD 10571·DEBRIS·🇷🇺 Russia

Lançado Dec 21, 1977 de Baikonur Cosmodrome

Loading…

Próximas Passagens (próximas 24 horas)

TLE

AtualizadoSource: Space-Track

Época: Sep 14, 2026, 04:58 UTC

1 10571U 77121N   26257.20718120  .00000386  00000-0  36428-3 0  9998
2 10571  65.9362 188.7953 0150628 293.5948  64.9366 13.87213755451668

Acompanhe COSMOS 970 DEB em tempo real com AllMySat

Download on the App Store